Location: Bon Acre
(42.6442°N, 73.5758°W)
Time: 14:20:56
(UTC+00:00)

ARIANE 6 FM1 Upper Stage - Pass Details

Date: 22 February 2026
Orbit: 523 x 607 km, 62.0° (Epoch: 6 March)

Event Time Altitude Azimuth Distance (km) Brightness Sun altitude
Rises 00:04:27 0° 305° (NW) 2,656 7.1 -17.3°
Reaches altitude 10° 00:07:15 10° 285° (WNW) 1,767 6.4 -17.8°
Maximum altitude 00:09:47 17° 245° (WSW) 1,399 5.5 -18.3°
Drops below altitude 10° 00:12:21 10° 204° (SSW) 1,775 5.5 -18.8°
Sets 00:15:10 0° 184° (S) 2,673 6.1 -19.3°
